Probability
29 32 33 32 25 20 19 20 19 12 4 0 0 0 0 0 0 1 2 3 3 3 2 2 1 0 0 0 0 0 0 0 0 0 0 0 0 0 0 0 0 0 0
32 34 36 35 30 25 24 24 20 13 6 2 1 1 1 0 0 1 1 2 3 3 3 3 2 1 1 1 0 0 0 0 0 0 0 0 0 0 0 0 0 0 0
34 37 40 40 34 29 29 28 22 15 8 5 3 2 2 1 1 1 1 1 3 4 3 3 3 3 2 2 1 0 0 0 0 0 0 0 0 0 0 0 0 0 0
35 39 43 41 36 32 31 29 25 19 12 7 5 3 3 3 3 2 1 1 3 4 4 3 3 3 3 3 2 1 0 0 0 0 0 0 0 0 0 0 0 0 0
33 38 42 39 35 32 30 28 27 23 17 11 7 4 4 4 4 3 2 2 2 3 3 3 3 3 3 3 3 2 1 0 0 0 0 0 0 0 0 0 0 0 0
28 33 38 37 34 32 31 31 30 26 21 17 12 7 6 5 5 5 6 4 1 1 3 3 3 4 4 4 4 3 1 1 0 0 0 0 0 0 0 0 0 0 0
21 27 34 36 35 35 35 35 34 30 25 22 19 13 9 7 7 7 8 6 2 1 3 3 4 5 5 6 5 4 3 3 1 1 0 0 0 0 0 0 0 0 0
19 25 32 34 34 36 37 36 34 31 28 26 25 21 16 12 9 7 7 6 3 3 3 3 4 5 6 6 6 6 7 5 3 2 1 0 0 0 0 0 0 0 0
19 22 26 27 29 33 35 36 34 31 28 28 27 25 21 16 10 6 5 5 5 4 4 4 4 5 5 5 6 8 8 6 3 2 1 0 0 0 0 0 0 0 0
19 20 22 23 25 28 33 37 37 32 28 28 26 24 21 16 10 6 5 5 6 5 5 5 6 6 6 6 8 8 7 5 3 2 1 0 0 0 0 0 0 0 0
20 20 23 27 28 28 32 36 37 33 28 27 26 24 20 17 14 10 7 6 6 5 5 5 6 6 7 9 9 8 6 5 3 2 1 0 0 0 0 0 0 0 0
22 23 28 33 34 32 33 34 35 32 28 26 27 26 23 20 17 13 10 7 6 5 5 5 5 5 7 10 11 8 6 5 2 1 0 0 0 0 0 0 0 0 1
24 26 28 32 34 35 35 36 35 33 30 28 28 28 26 23 18 13 10 8 7 6 6 6 6 6 7 10 11 9 6 4 1 0 0 0 0 0 0 0 1 2 2
27 27 27 30 34 36 38 39 38 34 32 31 30 29 28 24 18 14 12 10 9 8 7 8 8 7 7 8 9 9 6 4 2 1 1 1 1 1 0 1 2 3 3
34 31 30 33 35 36 38 41 39 33 31 31 30 28 26 23 19 16 14 14 12 9 8 8 8 8 7 8 9 9 6 5 4 3 2 2 2 2 1 1 3 4 4
39 37 36 36 38 38 38 39 35 30 28 29 28 25 23 22 22 20 18 15 13 10 9 9 9 9 8 8 9 9 8 6 5 4 4 3 3 3 3 3 3 3 3
40 39 38 38 38 38 37 35 32 28 27 27 25 23 22 22 23 22 19 15 12 12 11 10 10 10 9 9 8 8 8 7 7 6 5 3 2 3 3 3 3 3 3
39 38 38 38 37 37 35 33 31 28 26 25 24 23 23 22 22 22 19 14 12 12 11 10 10 10 9 8 7 6 7 7 7 6 6 5 4 3 3 3 2 2 1
40 38 37 37 37 36 35 32 29 27 25 25 25 24 23 22 21 20 16 11 10 10 9 9 9 9 8 7 6 6 7 7 6 5 5 6 5 4 2 1 1 1 0
42 42 41 39 37 36 35 32 28 25 25 26 25 24 22 20 19 17 12 8 7 7 7 7 8 7 7 7 6 6 7 7 5 4 4 4 4 3 1 0 0 0 1
50 50 48 45 41 38 36 33 27 24 24 24 24 22 20 18 15 13 9 6 6 6 6 6 5 6 6 7 6 5 5 6 6 5 4 4 3 2 1 0 0 0 1
56 56 53 48 44 41 37 31 25 22 23 22 21 20 17 14 11 9 7 6 5 6 6 6 4 4 6 6 4 3 3 5 6 6 6 5 4 3 2 1 0 0 1
56 56 52 47 43 39 33 27 22 22 23 22 20 18 14 9 6 6 6 6 6 6 6 6 4 4 5 4 3 1 1 2 4 5 5 4 3 2 2 1 0 0 0
49 50 48 44 40 35 28 24 23 24 24 23 19 15 11 6 4 4 4 5 6 7 7 6 4 3 4 3 3 2 1 1 1 2 2 1 1 1 1 0 0 0 0
41 42 44 43 39 35 28 24 24 25 24 22 18 13 9 5 3 2 2 3 5 7 7 5 4 4 3 3 3 2 2 1 0 0 0 0 0 0 0 0 0 0 0
35 38 42 43 39 35 29 25 24 24 24 21 17 12 8 5 3 1 1 2 4 5 5 4 4 4 4 3 3 2 1 1 0 0 0 0 0 0 0 0 0 0 0
Wind_Speed
10 11 11 10 9 8 8 8 7 5 4 2 2 2 2 2 1 2 4 4 4 3 3 2 1 1 1 2 1 1 0 1 1 1 2 2 1 0 1 1 2 2 3
9 10 10 10 10 9 8 8 8 6 5 3 3 2 2 2 2 2 3 4 4 3 3 3 2 2 1 1 1 1 1 1 1 2 1 1 3 2 1 0 1 1 2
15 13 12 10 10 10 9 8 8 6 5 4 2 1 1 1 0 1 1 2 3 3 3 3 3 3 3 2 2 2 2 1 1 2 3 2 2 1 2 1 1 1 1
13 13 13 12 12 11 9 8 8 7 5 4 3 3 2 2 2 2 2 1 1 2 3 3 3 3 2 2 3 2 2 2 2 1 1 2 3 2 0 2 1 1 2
14 15 14 14 11 10 8 7 7 6 5 4 4 3 2 2 1 1 1 1 1 1 2 3 3 3 2 3 2 2 2 2 2 2 1 1 1 2 2 1 1 1 2
14 13 11 10 9 9 8 7 7 6 6 5 4 4 3 2 1 1 1 1 1 1 2 2 3 3 3 3 3 2 2 2 2 1 1 2 2 2 2 2 1 1 0
13 12 12 11 10 10 9 8 7 6 6 6 5 4 4 3 3 3 3 2 1 1 2 2 2 2 2 2 2 2 1 1 2 2 1 1 1 1 2 3 2 1 0
12 13 13 12 12 11 10 8 7 6 7 6 5 4 4 3 2 3 2 3 2 2 2 2 1 1 1 2 2 1 1 1 1 1 1 1 1 2 2 3 3 2 1
12 12 12 11 10 10 10 9 7 6 6 6 5 3 3 3 3 2 2 2 1 1 1 2 2 1 1 1 1 1 1 1 1 1 1 1 0 1 1 2 4 4 3
10 10 10 9 8 8 8 8 8 8 7 6 5 4 3 3 2 2 1 1 1 1 2 2 2 1 1 1 1 1 1 1 0 0 1 0 0 1 1 1 1 2 4
11 10 9 9 9 8 8 8 8 7 6 6 5 4 3 2 2 2 1 1 2 2 2 2 2 2 1 1 1 1 1 1 1 0 1 1 1 1 1 2 2 2 3
8 9 9 9 8 8 8 7 7 7 6 5 4 4 3 3 3 2 2 2 2 2 2 3 3 2 2 2 2 1 1 1 1 1 1 1 1 2 1 2 2 2 3
8 8 8 8 8 8 8 8 8 7 6 5 5 4 4 4 3 2 2 2 3 3 3 4 3 3 2 2 2 1 1 1 1 1 1 1 2 2 1 2 2 2 3
8 8 7 7 7 7 7 7 7 7 7 6 6 5 4 4 3 3 3 3 3 3 3 3 3 3 3 3 2 2 2 3 2 2 1 1 2 1 2 2 2 3 4
9 9 8 7 7 7 7 7 7 7 7 7 6 5 4 4 4 4 4 4 4 4 3 4 3 3 2 2 3 3 3 3 3 3 3 3 3 3 2 2 3 4 4
9 9 9 9 9 9 8 8 7 7 7 7 6 5 5 5 4 4 4 4 4 3 4 4 3 3 2 3 4 4 3 3 3 3 3 3 4 6 6 6 5 5 5
10 10 10 9 9 8 8 8 8 7 7 7 6 5 5 5 4 5 5 4 3 3 4 3 4 3 3 5 5 5 4 3 3 3 2 3 4 4 4 6 7 6 5
10 9 8 8 8 7 7 7 7 7 7 6 6 5 5 5 4 5 5 4 3 3 3 3 3 3 4 5 5 6 4 4 3 3 3 3 3 3 4 5 5 4 3
9 9 9 8 8 8 8 8 8 7 7 6 6 5 6 6 5 5 4 4 4 4 3 3 4 4 3 4 6 6 4 4 4 4 4 4 3 4 6 6 5 5 3
7 7 7 7 8 8 9 9 8 7 7 7 6 5 6 6 6 5 4 4 4 4 4 4 3 3 2 4 6 5 3 4 3 3 4 5 5 6 6 5 4 4 2
7 7 8 7 8 9 9 9 8 7 6 6 6 5 5 5 5 4 4 4 4 4 4 4 3 2 2 3 5 5 3 3 3 2 2 2 5 5 5 4 3 3 2
8 9 8 7 7 8 9 9 8 7 7 7 7 6 5 5 5 5 4 4 5 5 4 3 2 2 2 3 4 5 4 4 4 2 1 1 3 4 4 3 3 4 4
7 7 8 7 6 7 8 9 8 8 8 7 6 5 5 4 4 5 5 4 4 4 3 3 2 1 1 2 3 4 5 5 3 2 2 2 3 4 3 4 5 4 3
6 6 8 8 7 6 7 8 8 9 9 8 7 6 5 4 4 3 3 4 4 4 4 3 3 2 1 0 1 2 2 3 3 2 3 4 4 4 3 3 2 2 2
5 6 8 8 7 7 7 7 8 9 9 8 6 6 5 5 4 3 2 2 3 4 5 4 4 4 3 3 4 3 2 1 2 2 3 3 2 2 2 2 2 2 2
6 6 7 7 7 7 7 7 8 9 9 7 6 5 5 4 4 4 3 5 3 2 4 5 5 3 4 6 5 4 3 3 5 4 2 1 1 1 1 1 1 1 1
Wind_Direction
167 164 163 159 158 162 164 167 167 174 165 156 159 163 196 213 214 207 206 202 197 187 179 189 191 174 166 191 199 189 198 240 133 67 21 2 5 76 141 159 149 161 172
161 165 165 163 165 169 170 167 171 175 178 178 176 181 186 208 208 216 215 209 201 195 191 185 190 191 183 206 208 172 158 251 136 140 117 360 350 355 348 117 137 158 159
173 173 173 173 171 174 175 172 173 175 183 180 159 155 85 6 342 248 232 230 209 198 194 189 186 187 181 205 216 194 170 210 257 171 153 157 218 292 347 20 71 90 124
175 176 177 178 180 181 176 168 170 173 178 170 163 167 175 201 220 212 213 241 206 195 197 197 193 194 195 204 216 204 189 178 228 249 198 182 168 166 274 352 17 73 88
178 181 184 184 181 176 173 171 169 174 175 173 173 174 192 210 216 189 197 218 226 222 211 201 196 198 204 210 213 202 198 190 202 211 203 191 185 167 158 230 313 40 50
181 182 182 174 173 171 171 171 175 180 178 177 176 181 193 196 171 187 208 234 241 239 231 209 203 204 206 209 212 207 199 198 190 184 182 180 173 179 162 186 205 159 32
179 178 178 177 176 174 175 177 178 184 182 181 187 189 190 180 183 193 198 214 229 234 232 212 200 202 202 197 189 184 191 181 171 184 197 188 194 165 155 155 174 155 162
181 182 183 181 178 174 173 174 180 187 183 185 194 187 181 181 196 199 195 206 214 219 218 186 177 190 195 195 175 179 198 162 181 204 196 176 198 162 165 164 159 146 93
178 179 178 175 171 166 169 173 178 185 182 185 183 184 182 179 188 195 185 186 194 178 135 136 136 140 143 163 152 157 186 148 170 208 189 169 196 154 169 166 164 158 156
172 172 173 171 167 162 159 157 175 180 176 179 181 180 183 188 190 174 172 151 132 103 95 95 100 97 95 99 109 126 154 124 146 148 112 118 136 104 118 143 139 137 148
168 163 161 163 157 150 151 154 163 164 168 171 168 165 165 170 157 134 123 114 106 107 100 109 108 97 90 85 93 87 95 120 112 67 107 133 109 104 104 113 109 113 128
154 151 152 150 149 150 151 154 159 161 164 163 154 154 142 135 131 123 117 113 108 105 109 100 96 91 80 68 73 72 56 79 73 65 90 82 98 96 100 115 123 128 129
139 139 141 144 150 154 157 160 162 159 155 150 144 141 134 131 135 136 127 123 113 98 92 94 94 90 82 80 76 82 72 80 65 70 100 105 100 94 109 121 127 130 124
143 141 143 148 151 156 157 156 158 155 151 148 145 144 145 142 139 131 124 120 111 103 95 92 89 83 78 70 69 82 80 71 59 58 70 95 112 141 140 135 138 127 118
145 147 149 151 150 153 158 156 154 153 150 146 147 151 148 136 124 120 117 111 106 102 99 94 82 73 75 63 66 80 87 82 70 53 52 70 81 88 122 135 144 136 131
156 156 155 156 160 163 161 155 151 151 147 147 152 149 138 131 128 125 118 108 99 90 87 87 82 69 60 68 85 95 91 91 89 76 56 63 63 70 76 89 103 128 144
161 162 165 167 166 165 159 156 152 147 148 150 151 149 148 143 141 132 122 118 115 104 92 83 80 72 60 71 85 93 100 90 84 85 76 71 62 60 72 76 77 82 102
158 162 165 163 160 155 150 146 140 146 151 154 156 156 150 147 144 138 136 135 122 112 101 87 83 78 63 75 91 95 91 80 73 76 86 90 72 71 85 84 73 65 67
164 167 165 161 154 152 150 142 145 148 150 153 156 154 148 146 144 143 140 134 121 106 99 98 90 81 55 69 90 96 87 79 67 64 71 91 88 79 91 90 83 68 48
148 154 149 144 151 155 149 146 151 153 159 160 157 149 146 147 148 147 139 131 125 120 108 93 89 96 80 71 95 103 103 90 76 60 58 75 91 89 93 102 104 96 69
144 150 148 152 159 154 147 150 154 165 162 148 141 138 140 142 142 135 134 132 126 117 108 101 85 83 84 83 100 111 111 118 104 87 58 48 80 85 85 99 113 140 133
151 153 151 152 150 151 151 155 163 161 143 138 137 138 140 139 132 127 127 130 133 126 121 112 91 62 63 77 97 108 112 117 112 114 106 76 83 79 82 88 100 101 97
153 151 148 146 149 157 157 160 162 148 141 139 140 141 135 126 131 136 140 134 133 134 137 134 130 109 60 56 81 99 107 110 104 117 136 117 93 81 76 77 91 93 90
149 148 145 148 155 156 154 158 152 148 145 147 147 144 138 131 125 131 141 145 151 150 150 151 155 149 129 96 63 72 91 92 84 76 78 76 68 63 60 55 60 78 105
155 153 154 155 158 152 150 152 151 149 148 151 151 148 144 141 132 119 115 152 169 177 169 173 170 166 181 212 181 152 145 140 128 96 65 55 52 50 36 30 29 37 51
151 149 149 149 150 148 151 154 154 154 153 157 159 158 153 149 143 134 96 46 69 129 166 170 166 175 181 173 166 161 156 146 137 111 102 103 111 121 125 115 51 49 73